Check out our new BloomSky Weather System.

Active alerts


No alerts


Thunder radar  blitzortung!


Rain radar more information rain snow radar


Visit our other weather sites:

Template documentation
and downloads

And another site



Weather Underground History page Text

Daily Summary for July 29, 2017 Units:  English    Metric   Both
« Previous Day
Next Day »
Daily Weekly Monthly Yearly Custom
  High: Low: Average:
Temperature: 101.1 °F 78.6 °F 89 °F
Dew Point: 80.1 °F 73.4 °F 77.7 °F
Humidity: 96 % 43 % 72 %
Wind Speed: 8.0 mph 0.0 mph 2.3 mph
Wind Gust: 14.0 mph - -
Wind:- - South
Pressure: 29.92 in 29.81 in -
Precipitation: 0.00 in    
Historical Graphs
 
 
Tabular Data for July 29, 2017
Time Temperature Dew Point Pressure Wind Wind Speed Wind Gust Humidity Rainfall Rate (Hourly)
00:02 84.0 °F 77.5 °F 29.88 in South 4.0 mph 10.0 mph 81 % 0.00 in
00:07 83.8 °F 77.7 °F 29.88 in SSE 6.0 mph 10.0 mph 82 % 0.00 in
00:12 83.8 °F 77.7 °F 29.88 in SW 4.0 mph 14.0 mph 82 % 0.00 in
00:17 83.7 °F 77.9 °F 29.88 in South 4.0 mph 14.0 mph 83 % 0.00 in
00:22 83.5 °F 77.7 °F 29.88 in SSW 4.0 mph 14.0 mph 83 % 0.00 in
00:27 83.5 °F 78.1 °F 29.88 in South 7.0 mph 8.0 mph 84 % 0.00 in
00:32 83.3 °F 78.3 °F 29.88 in SE 5.0 mph 7.0 mph 85 % 0.00 in
00:37 83.1 °F 78.1 °F 29.88 in SW 2.0 mph 11.0 mph 85 % 0.00 in
00:42 83.1 °F 78.4 °F 29.88 in SSE 7.0 mph 11.0 mph 86 % 0.00 in
00:47 82.9 °F 78.6 °F 29.88 in SSW 3.0 mph 13.0 mph 87 % 0.00 in
00:52 82.9 °F 78.6 °F 29.89 in SSE 5.0 mph 13.0 mph 87 % 0.00 in
00:57 82.8 °F 78.4 °F 29.89 in SW 2.0 mph 13.0 mph 87 % 0.00 in
01:02 82.6 °F 78.3 °F 29.89 in SSE 3.0 mph 11.0 mph 87 % 0.00 in
01:07 82.6 °F 78.6 °F 29.89 in South 3.0 mph 10.0 mph 88 % 0.00 in
01:12 82.4 °F 78.4 °F 29.88 in South 5.0 mph 8.0 mph 88 % 0.00 in
01:17 82.2 °F 78.3 °F 29.88 in South 2.0 mph 8.0 mph 88 % 0.00 in
01:22 82.2 °F 78.3 °F 29.88 in SSW 5.0 mph 8.0 mph 88 % 0.00 in
01:27 82.2 °F 78.3 °F 29.88 in WSW 5.0 mph 8.0 mph 88 % 0.00 in
01:32 82.0 °F 78.1 °F 29.88 in South 6.0 mph 7.0 mph 88 % 0.00 in
01:37 82.0 °F 78.1 °F 29.88 in SSW 2.0 mph 8.0 mph 88 % 0.00 in
01:42 81.9 °F 77.9 °F 29.88 in SSW 4.0 mph 9.0 mph 88 % 0.00 in
01:47 81.9 °F 78.3 °F 29.88 in SE 1.0 mph 9.0 mph 89 % 0.00 in
01:52 81.9 °F 78.3 °F 29.88 in SSW 2.0 mph 9.0 mph 89 % 0.00 in
01:57 81.7 °F 78.1 °F 29.88 in South 1.0 mph 7.0 mph 89 % 0.00 in
02:02 81.7 °F 78.1 °F 29.88 in Calm   6.0 mph 89 % 0.00 in
02:07 81.5 °F 77.9 °F 29.88 in South 1.0 mph 4.0 mph 89 % 0.00 in
02:12 81.3 °F 77.7 °F 29.88 in Calm   4.0 mph 89 % 0.00 in
02:17 81.1 °F 77.9 °F 29.88 in Calm   3.0 mph 90 % 0.00 in
02:22 81.1 °F 77.9 °F 29.88 in South 2.0 mph 3.0 mph 90 % 0.00 in
02:27 81.1 °F 77.9 °F 29.87 in South 2.0 mph 3.0 mph 90 % 0.00 in
02:28 81.1 °F 77.9 °F 29.87 in SSW 1.0 mph 3.0 mph 90 % 0.00 in
02:33 81.0 °F 77.7 °F 29.87 in SSE 1.0 mph 4.0 mph 90 % 0.00 in
02:38 81.1 °F 77.9 °F 29.87 in South 3.0 mph 5.0 mph 90 % 0.00 in
02:43 81.1 °F 77.9 °F 29.87 in SE 2.0 mph 5.0 mph 90 % 0.00 in
02:48 81.0 °F 77.7 °F 29.87 in SSW 4.0 mph 5.0 mph 90 % 0.00 in
02:49 81.0 °F 77.7 °F 29.87 in SSW 4.0 mph 5.0 mph 90 % 0.00 in
02:54 81.0 °F 77.7 °F 29.87 in SSW 3.0 mph 5.0 mph 90 % 0.00 in
02:59 81.0 °F 78.1 °F 29.87 in South 2.0 mph 5.0 mph 91 % 0.00 in
03:04 81.0 °F 78.1 °F 29.87 in South 3.0 mph 6.0 mph 91 % 0.00 in
03:09 81.0 °F 78.1 °F 29.87 in SSW 2.0 mph 6.0 mph 91 % 0.00 in
03:14 81.0 °F 78.1 °F 29.86 in SSW 1.0 mph 6.0 mph 91 % 0.00 in
03:19 81.0 °F 78.1 °F 29.87 in SSW 3.0 mph 6.0 mph 91 % 0.00 in
03:24 81.0 °F 78.1 °F 29.87 in South 6.0 mph 9.0 mph 91 % 0.00 in
03:29 81.0 °F 78.1 °F 29.86 in South 2.0 mph 9.0 mph 91 % 0.00 in
03:34 81.0 °F 78.1 °F 29.86 in South 2.0 mph 9.0 mph 91 % 0.00 in
03:39 80.8 °F 77.9 °F 29.86 in South 2.0 mph 6.0 mph 91 % 0.00 in
03:44 80.8 °F 77.9 °F 29.86 in SSW 3.0 mph 5.0 mph 91 % 0.00 in
03:49 80.8 °F 78.3 °F 29.86 in Calm   5.0 mph 92 % 0.00 in
03:54 80.4 °F 77.9 °F 29.86 in Calm   5.0 mph 92 % 0.00 in
03:59 80.4 °F 77.9 °F 29.86 in SSW 1.0 mph 5.0 mph 92 % 0.00 in
04:04 80.4 °F 77.9 °F 29.86 in South 1.0 mph 5.0 mph 92 % 0.00 in
04:09 80.4 °F 77.9 °F 29.86 in SSW 2.0 mph 5.0 mph 92 % 0.00 in
04:14 80.2 °F 77.7 °F 29.86 in SSW 1.0 mph 6.0 mph 92 % 0.00 in
04:19 80.4 °F 77.9 °F 29.86 in South 2.0 mph 7.0 mph 92 % 0.00 in
04:24 80.2 °F 77.7 °F 29.86 in SSW 1.0 mph 8.0 mph 92 % 0.00 in
04:29 80.2 °F 77.7 °F 29.86 in SSW 4.0 mph 8.0 mph 92 % 0.00 in
04:34 80.2 °F 77.7 °F 29.86 in SSW 1.0 mph 8.0 mph 92 % 0.00 in
04:39 80.2 °F 77.7 °F 29.86 in Calm   7.0 mph 92 % 0.00 in
04:44 80.1 °F 77.5 °F 29.86 in SSW 1.0 mph 7.0 mph 92 % 0.00 in
04:49 80.1 °F 77.9 °F 29.86 in South 1.0 mph 7.0 mph 93 % 0.00 in
04:54 79.9 °F 77.7 °F 29.86 in South 2.0 mph 6.0 mph 93 % 0.00 in
04:59 79.9 °F 77.7 °F 29.87 in SSW 1.0 mph 6.0 mph 93 % 0.00 in
05:04 79.7 °F 77.5 °F 29.87 in Calm   6.0 mph 93 % 0.00 in
05:09 79.5 °F 77.4 °F 29.87 in Calm   4.0 mph 93 % 0.00 in
05:14 79.5 °F 77.4 °F 29.88 in Calm   4.0 mph 93 % 0.00 in
05:19 79.5 °F 77.4 °F 29.88 in WNW 1.0 mph 3.0 mph 93 % 0.00 in
05:24 79.3 °F 77.2 °F 29.88 in South 1.0 mph 3.0 mph 93 % 0.00 in
05:29 79.3 °F 77.2 °F 29.88 in Calm   3.0 mph 93 % 0.00 in
05:34 79.3 °F 77.5 °F 29.88 in Calm   3.0 mph 94 % 0.00 in
05:40 79.2 °F 77.0 °F 29.88 in Calm   3.0 mph 93 % 0.00 in
05:45 79.2 °F 77.4 °F 29.88 in Calm   3.0 mph 94 % 0.00 in
05:50 79.2 °F 77.4 °F 29.88 in South 1.0 mph 3.0 mph 94 % 0.00 in
05:55 79.2 °F 77.4 °F 29.89 in Calm   5.0 mph 94 % 0.00 in
06:00 79.2 °F 77.4 °F 29.89 in South 1.0 mph 5.0 mph 94 % 0.00 in
06:05 79.2 °F 77.4 °F 29.89 in SSW 2.0 mph 5.0 mph 94 % 0.00 in
06:10 79.2 °F 77.4 °F 29.89 in SSW 1.0 mph 4.0 mph 94 % 0.00 in
06:15 79.2 °F 77.4 °F 29.89 in SSW 1.0 mph 4.0 mph 94 % 0.00 in
06:20 79.0 °F 77.2 °F 29.89 in Calm   4.0 mph 94 % 0.00 in
06:25 79.0 °F 77.2 °F 29.89 in Calm   5.0 mph 94 % 0.00 in
06:35 78.8 °F 77.2 °F 29.89 in Calm   5.0 mph 95 % 0.00 in
06:40 78.8 °F 77.2 °F 29.89 in Calm   3.0 mph 95 % 0.00 in
06:45 78.6 °F 77.0 °F 29.89 in SSW 2.0 mph 3.0 mph 95 % 0.00 in
06:50 78.6 °F 77.0 °F 29.89 in Calm   3.0 mph 95 % 0.00 in
06:55 78.6 °F 77.0 °F 29.89 in SSW 2.0 mph 3.0 mph 95 % 0.00 in
07:00 78.6 °F 77.0 °F 29.89 in SSW 1.0 mph 3.0 mph 95 % 0.00 in
07:05 78.6 °F 77.0 °F 29.89 in Calm   3.0 mph 95 % 0.00 in
07:10 78.6 °F 77.4 °F 29.89 in South 2.0 mph 3.0 mph 96 % 0.00 in
07:15 78.6 °F 77.4 °F 29.89 in Calm   5.0 mph 96 % 0.00 in
07:20 78.6 °F 77.4 °F 29.89 in South 1.0 mph 5.0 mph 96 % 0.00 in
07:25 78.8 °F 77.5 °F 29.90 in Calm   6.0 mph 96 % 0.00 in
07:30 79.2 °F 77.9 °F 29.90 in South 1.0 mph 6.0 mph 96 % 0.00 in
07:35 79.3 °F 77.7 °F 29.90 in Calm   6.0 mph 95 % 0.00 in
07:40 79.5 °F 77.9 °F 29.90 in South 1.0 mph 5.0 mph 95 % 0.00 in
07:45 79.9 °F 78.3 °F 29.90 in West 5.0 mph 5.0 mph 95 % 0.00 in
07:50 80.1 °F 78.3 °F 29.91 in WSW 1.0 mph 5.0 mph 94 % 0.00 in
07:55 80.2 °F 78.4 °F 29.91 in Calm   5.0 mph 94 % 0.00 in
08:00 80.4 °F 78.6 °F 29.91 in Calm   5.0 mph 94 % 0.00 in
08:05 80.6 °F 78.4 °F 29.91 in Calm   5.0 mph 93 % 0.00 in
08:10 81.0 °F 78.8 °F 29.91 in WSW 3.0 mph 4.0 mph 93 % 0.00 in
08:15 81.1 °F 78.6 °F 29.91 in Calm   4.0 mph 92 % 0.00 in
08:20 81.7 °F 79.2 °F 29.91 in South 3.0 mph 4.0 mph 92 % 0.00 in
08:25 81.9 °F 79.0 °F 29.91 in Calm   5.0 mph 91 % 0.00 in
08:30 82.2 °F 79.3 °F 29.91 in Calm   5.0 mph 91 % 0.00 in
08:35 82.6 °F 79.7 °F 29.91 in WSW 3.0 mph 5.0 mph 91 % 0.00 in
08:40 82.9 °F 79.7 °F 29.91 in SW 1.0 mph 6.0 mph 90 % 0.00 in
08:45 83.3 °F 79.3 °F 29.91 in SSW 3.0 mph 7.0 mph 88 % 0.00 in
08:46 83.5 °F 79.5 °F 29.91 in SSW 1.0 mph 7.0 mph 88 % 0.00 in
08:51 84.0 °F 80.1 °F 29.92 in SSE 1.0 mph 7.0 mph 88 % 0.00 in
08:56 84.6 °F 79.9 °F 29.91 in SSW 2.0 mph 7.0 mph 86 % 0.00 in
09:01 84.9 °F 79.9 °F 29.91 in West 4.0 mph 8.0 mph 85 % 0.00 in
09:06 85.3 °F 79.9 °F 29.91 in SW 1.0 mph 8.0 mph 84 % 0.00 in
09:11 85.6 °F 79.9 °F 29.91 in SSW 2.0 mph 8.0 mph 83 % 0.00 in
09:16 86.0 °F 79.5 °F 29.91 in SSW 4.0 mph 9.0 mph 81 % 0.00 in
09:21 86.4 °F 79.9 °F 29.91 in Calm   9.0 mph 81 % 0.00 in
09:26 86.7 °F 79.3 °F 29.91 in SSE 2.0 mph 9.0 mph 79 % 0.00 in
09:31 87.1 °F 79.3 °F 29.91 in NW 2.0 mph 9.0 mph 78 % 0.00 in
09:36 87.4 °F 79.3 °F 29.91 in SW 2.0 mph 9.0 mph 77 % 0.00 in
09:41 88.0 °F 79.5 °F 29.91 in WSW 8.0 mph 9.0 mph 76 % 0.00 in
09:46 88.5 °F 79.5 °F 29.91 in Calm   9.0 mph 75 % 0.00 in
09:51 89.1 °F 79.7 °F 29.91 in NNW 1.0 mph 9.0 mph 74 % 0.00 in
09:56 89.1 °F 78.4 °F 29.91 in South 1.0 mph 8.0 mph 71 % 0.00 in
10:06 89.8 °F 78.6 °F 29.91 in NNW 1.0 mph 9.0 mph 70 % 0.00 in
10:11 90.1 °F 79.0 °F 29.91 in SE 4.0 mph 9.0 mph 70 % 0.00 in
10:16 90.7 °F 79.5 °F 29.91 in SSW 1.0 mph 10.0 mph 70 % 0.00 in
10:21 90.9 °F 79.3 °F 29.91 in SSW 3.0 mph 10.0 mph 69 % 0.00 in
10:26 90.5 °F 79.3 °F 29.91 in SW 5.0 mph 10.0 mph 70 % 0.00 in
10:31 90.9 °F 78.4 °F 29.92 in WNW 3.0 mph 8.0 mph 67 % 0.00 in
10:36 90.7 °F 78.6 °F 29.92 in SW 1.0 mph 9.0 mph 68 % 0.00 in
10:41 90.9 °F 77.9 °F 29.92 in Calm   9.0 mph 66 % 0.00 in
10:46 90.5 °F 78.1 °F 29.91 in SSW 4.0 mph 9.0 mph 67 % 0.00 in
10:51 90.1 °F 78.1 °F 29.91 in NNE 3.0 mph 7.0 mph 68 % 0.00 in
10:56 90.9 °F 78.4 °F 29.91 in WSW 6.0 mph 7.0 mph 67 % 0.00 in
11:01 91.6 °F 78.6 °F 29.91 in WNW 5.0 mph 8.0 mph 66 % 0.00 in
11:06 91.6 °F 77.7 °F 29.91 in WNW 2.0 mph 8.0 mph 64 % 0.00 in
11:16 92.7 °F 77.7 °F 29.91 in West 1.0 mph 8.0 mph 62 % 0.00 in
11:21 92.8 °F 77.9 °F 29.91 in South 1.0 mph 8.0 mph 62 % 0.00 in
11:24 92.8 °F 77.9 °F 29.91 in West 1.0 mph 8.0 mph 62 % 0.00 in
11:29 93.4 °F 78.4 °F 29.91 in Calm   8.0 mph 62 % 0.00 in
11:34 93.7 °F 79.2 °F 29.91 in NE 2.0 mph 8.0 mph 63 % 0.00 in
11:39 93.9 °F 78.4 °F 29.91 in ESE 4.0 mph 7.0 mph 61 % 0.00 in
11:44 93.9 °F 79.0 °F 29.91 in WSW 2.0 mph 6.0 mph 62 % 0.00 in
11:49 93.9 °F 79.3 °F 29.90 in South 5.0 mph 5.0 mph 63 % 0.00 in
11:54 93.6 °F 78.6 °F 29.91 in South 3.0 mph 7.0 mph 62 % 0.00 in
11:59 93.7 °F 79.2 °F 29.90 in SSW 1.0 mph 7.0 mph 63 % 0.00 in
12:04 94.3 °F 78.3 °F 29.90 in SSW 3.0 mph 7.0 mph 60 % 0.00 in
12:06 94.5 °F 78.4 °F 29.90 in WSW 2.0 mph 7.0 mph 60 % 0.00 in
12:11 94.5 °F 79.0 °F 29.90 in SE 1.0 mph 7.0 mph 61 % 0.00 in
12:16 94.8 °F 78.3 °F 29.90 in WNW 2.0 mph 5.0 mph 59 % 0.00 in
12:21 95.2 °F 77.5 °F 29.90 in South 1.0 mph 5.0 mph 57 % 0.00 in
12:26 95.0 °F 78.4 °F 29.90 in West 5.0 mph 6.0 mph 59 % 0.00 in
12:31 95.4 °F 78.8 °F 29.89 in WNW 1.0 mph 6.0 mph 59 % 0.00 in
12:36 95.9 °F 77.2 °F 29.89 in SSW 1.0 mph 6.0 mph 55 % 0.00 in
12:41 95.9 °F 78.3 °F 29.89 in WNW 2.0 mph 6.0 mph 57 % 0.00 in
12:52 96.1 °F 77.9 °F 29.89 in South 4.0 mph 6.0 mph 56 % 0.00 in
12:57 96.1 °F 78.4 °F 29.89 in West 1.0 mph 7.0 mph 57 % 0.00 in
13:02 96.1 °F 78.4 °F 29.89 in SSE 1.0 mph 7.0 mph 57 % 0.00 in
13:07 95.7 °F 77.0 °F 29.88 in NNW 4.0 mph 7.0 mph 55 % 0.00 in
13:12 95.0 °F 77.4 °F 29.88 in West 1.0 mph 7.0 mph 57 % 0.00 in
13:17 96.3 °F 78.6 °F 29.88 in ESE 1.0 mph 7.0 mph 57 % 0.00 in
13:22 97.2 °F 78.8 °F 29.88 in SSW 2.0 mph 7.0 mph 56 % 0.00 in
13:27 97.9 °F 78.4 °F 29.88 in NNW 1.0 mph 7.0 mph 54 % 0.00 in
13:32 97.3 °F 76.1 °F 29.88 in WNW 2.0 mph 5.0 mph 51 % 0.00 in
13:37 97.0 °F 77.0 °F 29.88 in WNW 4.0 mph 5.0 mph 53 % 0.00 in
13:43 97.9 °F 76.6 °F 29.88 in South 5.0 mph 5.0 mph 51 % 0.00 in
13:48 98.4 °F 76.6 °F 29.88 in North 1.0 mph 5.0 mph 50 % 0.00 in
13:52 98.8 °F 75.0 °F 29.87 in East 6.0 mph 6.0 mph 47 % 0.00 in
13:58 98.2 °F 76.5 °F 29.87 in South 2.0 mph 9.0 mph 50 % 0.00 in
14:03 99.0 °F 78.3 °F 29.87 in WSW 3.0 mph 9.0 mph 52 % 0.00 in
14:08 99.7 °F 78.3 °F 29.87 in WSW 2.0 mph 9.0 mph 51 % 0.00 in
14:13 99.3 °F 79.2 °F 29.87 in SSW 1.0 mph 5.0 mph 53 % 0.00 in
14:18 100.0 °F 78.1 °F 29.87 in South 1.0 mph 5.0 mph 50 % 0.00 in
14:23 100.0 °F 76.8 °F 29.87 in Calm   5.0 mph 48 % 0.00 in
14:28 99.9 °F 76.1 °F 29.86 in ENE 2.0 mph 5.0 mph 47 % 0.00 in
14:33 100.0 °F 77.4 °F 29.86 in SSW 1.0 mph 4.0 mph 49 % 0.00 in
14:38 100.2 °F 77.5 °F 29.86 in South 2.0 mph 6.0 mph 49 % 0.00 in
14:43 100.2 °F 77.0 °F 29.86 in Calm   6.0 mph 48 % 0.00 in
14:53 100.4 °F 76.5 °F 29.86 in NNW 2.0 mph 6.0 mph 47 % 0.00 in
14:58 100.0 °F 75.6 °F 29.86 in SE 3.0 mph 5.0 mph 46 % 0.00 in
15:03 100.6 °F 77.4 °F 29.86 in SSW 1.0 mph 5.0 mph 48 % 0.00 in
15:08 100.8 °F 76.1 °F 29.85 in East 2.0 mph 4.0 mph 46 % 0.00 in
15:13 100.4 °F 75.2 °F 29.86 in South 3.0 mph 4.0 mph 45 % 0.00 in
15:18 100.4 °F 75.2 °F 29.85 in East 2.0 mph 4.0 mph 45 % 0.00 in
15:20 100.2 °F 75.0 °F 29.85 in SSE 4.0 mph 4.0 mph 45 % 0.00 in
15:25 100.2 °F 77.0 °F 29.85 in South 1.0 mph 5.0 mph 48 % 0.00 in
15:30 100.4 °F 73.8 °F 29.85 in East 3.0 mph 6.0 mph 43 % 0.00 in
15:35 100.0 °F 74.1 °F 29.85 in ENE 3.0 mph 6.0 mph 44 % 0.00 in
15:40 99.9 °F 74.7 °F 29.84 in SSE 6.0 mph 6.0 mph 45 % 0.00 in
15:45 100.2 °F 75.7 °F 29.84 in SE 4.0 mph 6.0 mph 46 % 0.00 in
15:50 100.2 °F 74.3 °F 29.85 in Calm   6.0 mph 44 % 0.00 in
15:55 100.0 °F 74.1 °F 29.84 in NE 2.0 mph 6.0 mph 44 % 0.00 in
16:00 100.0 °F 74.1 °F 29.84 in Calm   5.0 mph 44 % 0.00 in
16:05 99.9 °F 74.1 °F 29.84 in Calm   6.0 mph 44 % 0.00 in
16:10 99.9 °F 73.4 °F 29.84 in ESE 1.0 mph 6.0 mph 43 % 0.00 in
16:15 99.9 °F 75.4 °F 29.84 in Calm   6.0 mph 46 % 0.00 in
16:20 100.2 °F 76.3 °F 29.84 in SSE 1.0 mph 3.0 mph 47 % 0.00 in
16:25 100.8 °F 76.8 °F 29.84 in East 2.0 mph 4.0 mph 47 % 0.00 in
16:30 100.6 °F 76.1 °F 29.83 in SSW 2.0 mph 7.0 mph 46 % 0.00 in
16:35 100.8 °F 75.6 °F 29.83 in SE 1.0 mph 7.0 mph 45 % 0.00 in
16:40 100.8 °F 76.1 °F 29.83 in SSE 5.0 mph 8.0 mph 46 % 0.00 in
16:45 101.1 °F 77.2 °F 29.83 in Calm   8.0 mph 47 % 0.00 in
16:50 101.1 °F 75.2 °F 29.83 in ESE 4.0 mph 8.0 mph 44 % 0.00 in
16:55 100.9 °F 75.7 °F 29.83 in SE 1.0 mph 6.0 mph 45 % 0.00 in
17:00 100.4 °F 76.5 °F 29.83 in ESE 7.0 mph 7.0 mph 47 % 0.00 in
17:05 100.0 °F 75.6 °F 29.83 in SE 4.0 mph 8.0 mph 46 % 0.00 in
17:10 99.9 °F 75.4 °F 29.82 in South 2.0 mph 10.0 mph 46 % 0.00 in
17:15 99.9 °F 76.6 °F 29.82 in SSW 3.0 mph 10.0 mph 48 % 0.00 in
17:20 99.5 °F 75.7 °F 29.82 in ESE 5.0 mph 10.0 mph 47 % 0.00 in
17:25 99.1 °F 74.7 °F 29.82 in SSE 2.0 mph 10.0 mph 46 % 0.00 in
17:26 99.1 °F 75.9 °F 29.82 in East 5.0 mph 10.0 mph 48 % 0.00 in
17:31 99.1 °F 75.9 °F 29.82 in SE 3.0 mph 10.0 mph 48 % 0.00 in
17:36 99.0 °F 75.2 °F 29.82 in South 3.0 mph 8.0 mph 47 % 0.00 in
17:41 98.8 °F 74.3 °F 29.82 in ESE 2.0 mph 8.0 mph 46 % 0.00 in
17:46 98.6 °F 74.3 °F 29.82 in SSW 3.0 mph 8.0 mph 46 % 0.00 in
17:51 98.2 °F 74.5 °F 29.82 in South 3.0 mph 8.0 mph 47 % 0.00 in
17:56 97.9 °F 74.3 °F 29.82 in East 2.0 mph 6.0 mph 47 % 0.00 in
18:05 97.5 °F 73.9 °F 29.82 in East 5.0 mph 6.0 mph 47 % 0.00 in
18:10 97.3 °F 74.3 °F 29.82 in SSE 4.0 mph 7.0 mph 48 % 0.00 in
18:15 97.2 °F 73.6 °F 29.81 in SSE 3.0 mph 7.0 mph 47 % 0.00 in
18:20 97.0 °F 73.4 °F 29.81 in SE 4.0 mph 6.0 mph 47 % 0.00 in
18:25 97.0 °F 73.9 °F 29.81 in ESE 4.0 mph 6.0 mph 48 % 0.00 in
18:30 96.8 °F 75.0 °F 29.81 in ESE 3.0 mph 6.0 mph 50 % 0.00 in
18:35 96.4 °F 75.9 °F 29.81 in ENE 2.0 mph 6.0 mph 52 % 0.00 in
18:40 96.1 °F 76.1 °F 29.81 in ESE 1.0 mph 6.0 mph 53 % 0.00 in
18:45 96.1 °F 76.1 °F 29.81 in SE 1.0 mph 6.0 mph 53 % 0.00 in
18:50 95.9 °F 75.4 °F 29.81 in ESE 1.0 mph 5.0 mph 52 % 0.00 in
18:55 95.7 °F 75.9 °F 29.81 in ESE 1.0 mph 5.0 mph 53 % 0.00 in
19:00 95.7 °F 74.7 °F 29.81 in ESE 4.0 mph 4.0 mph 51 % 0.00 in
19:05 95.7 °F 75.2 °F 29.81 in ESE 1.0 mph 5.0 mph 52 % 0.00 in
19:09 95.5 °F 75.0 °F 29.81 in ESE 2.0 mph 5.0 mph 52 % 0.00 in
19:19 95.4 °F 77.2 °F 29.81 in ESE 4.0 mph 5.0 mph 56 % 0.00 in
19:24 94.8 °F 77.7 °F 29.81 in SE 4.0 mph 9.0 mph 58 % 0.00 in
19:29 94.5 °F 77.9 °F 29.81 in ESE 4.0 mph 9.0 mph 59 % 0.00 in
19:34 94.3 °F 78.8 °F 29.81 in South 4.0 mph 9.0 mph 61 % 0.00 in
19:39 93.9 °F 79.0 °F 29.81 in ENE 3.0 mph 7.0 mph 62 % 0.00 in
19:44 93.7 °F 79.7 °F 29.81 in East 2.0 mph 6.0 mph 64 % 0.00 in
19:49 93.6 °F 79.5 °F 29.81 in ESE 2.0 mph 7.0 mph 64 % 0.00 in
19:54 93.4 °F 79.9 °F 29.81 in SE 2.0 mph 7.0 mph 65 % 0.00 in
19:59 93.0 °F 79.9 °F 29.81 in East 2.0 mph 7.0 mph 66 % 0.00 in
20:04 93.0 °F 79.9 °F 29.82 in ESE 5.0 mph 6.0 mph 66 % 0.00 in
20:07 92.8 °F 79.9 °F 29.82 in SSE 3.0 mph 6.0 mph 66 % 0.00 in
20:12 92.7 °F 79.7 °F 29.82 in ESE 4.0 mph 6.0 mph 66 % 0.00 in
20:17 92.5 °F 79.5 °F 29.81 in ESE 2.0 mph 6.0 mph 66 % 0.00 in
20:22 92.5 °F 79.5 °F 29.81 in ESE 4.0 mph 7.0 mph 66 % 0.00 in
20:27 92.3 °F 79.3 °F 29.81 in East 4.0 mph 8.0 mph 66 % 0.00 in
20:33 92.1 °F 78.6 °F 29.82 in SE 4.0 mph 8.0 mph 65 % 0.00 in
20:38 91.9 °F 79.0 °F 29.82 in SE 2.0 mph 8.0 mph 66 % 0.00 in
20:43 91.8 °F 78.8 °F 29.82 in East 3.0 mph 7.0 mph 66 % 0.00 in
20:48 91.6 °F 79.0 °F 29.82 in East 4.0 mph 7.0 mph 67 % 0.00 in
20:53 91.6 °F 79.0 °F 29.82 in ESE 3.0 mph 6.0 mph 67 % 0.00 in
20:58 91.4 °F 78.8 °F 29.82 in SE 3.0 mph 6.0 mph 67 % 0.00 in
21:03 91.2 °F 79.2 °F 29.83 in ESE 1.0 mph 7.0 mph 68 % 0.00 in
21:08 91.0 °F 79.0 °F 29.83 in SSE 7.0 mph 7.0 mph 68 % 0.00 in
21:13 90.9 °F 79.3 °F 29.83 in SE 3.0 mph 9.0 mph 69 % 0.00 in
21:18 90.9 °F 79.7 °F 29.83 in SE 2.0 mph 9.0 mph 70 % 0.00 in
21:23 90.7 °F 79.5 °F 29.84 in ESE 3.0 mph 9.0 mph 70 % 0.00 in
21:28 90.5 °F 79.9 °F 29.84 in ESE 2.0 mph 7.0 mph 71 % 0.00 in
21:33 90.3 °F 79.7 °F 29.84 in SE 1.0 mph 8.0 mph 71 % 0.00 in
21:38 90.1 °F 79.5 °F 29.84 in SE 4.0 mph 8.0 mph 71 % 0.00 in
21:43 90.0 °F 79.7 °F 29.84 in ESE 2.0 mph 8.0 mph 72 % 0.00 in
21:48 89.8 °F 79.5 °F 29.85 in SSE 3.0 mph 8.0 mph 72 % 0.00 in
21:58 89.4 °F 79.7 °F 29.85 in SSE 5.0 mph 8.0 mph 73 % 0.00 in
22:03 89.2 °F 79.5 °F 29.85 in SSW 5.0 mph 8.0 mph 73 % 0.00 in
22:08 89.1 °F 79.7 °F 29.85 in South 4.0 mph 8.0 mph 74 % 0.00 in
22:13 88.9 °F 79.5 °F 29.85 in South 4.0 mph 8.0 mph 74 % 0.00 in
22:18 88.5 °F 79.5 °F 29.86 in SSE 4.0 mph 8.0 mph 75 % 0.00 in
22:23 88.5 °F 79.5 °F 29.86 in SSE 4.0 mph 7.0 mph 75 % 0.00 in
22:28 88.3 °F 79.3 °F 29.86 in South 2.0 mph 9.0 mph 75 % 0.00 in
22:33 88.0 °F 79.0 °F 29.87 in South 3.0 mph 9.0 mph 75 % 0.00 in
22:38 87.6 °F 78.6 °F 29.87 in SE 5.0 mph 9.0 mph 75 % 0.00 in
22:43 87.3 °F 78.4 °F 29.88 in SSW 6.0 mph 8.0 mph 75 % 0.00 in
22:48 87.1 °F 78.3 °F 29.88 in South 8.0 mph 9.0 mph 75 % 0.00 in
22:53 86.7 °F 77.9 °F 29.88 in South 4.0 mph 9.0 mph 75 % 0.00 in
22:58 86.5 °F 78.1 °F 29.88 in South 2.0 mph 9.0 mph 76 % 0.00 in
23:03 86.4 °F 77.9 °F 29.88 in South 5.0 mph 9.0 mph 76 % 0.00 in
23:08 86.2 °F 77.7 °F 29.88 in South 3.0 mph 7.0 mph 76 % 0.00 in
23:13 85.8 °F 77.4 °F 29.89 in SSE 2.0 mph 7.0 mph 76 % 0.00 in
23:18 85.6 °F 76.8 °F 29.89 in Calm   7.0 mph 75 % 0.00 in
23:28 85.3 °F 76.1 °F 29.89 in South 4.0 mph 8.0 mph 74 % 0.00 in
23:33 85.1 °F 75.9 °F 29.89 in SSW 2.0 mph 8.0 mph 74 % 0.00 in
23:38 84.9 °F 76.1 °F 29.89 in SE 2.0 mph 6.0 mph 75 % 0.00 in
23:43 84.9 °F 75.7 °F 29.90 in SSE 2.0 mph 6.0 mph 74 % 0.00 in
23:48 84.9 °F 75.7 °F 29.90 in SSW 2.0 mph 5.0 mph 74 % 0.00 in
23:53 84.7 °F 75.9 °F 29.90 in SSE 3.0 mph 5.0 mph 75 % 0.00 in
23:58 84.6 °F 75.7 °F 29.90 in Calm   5.0 mph 75 % 0.00 in
Spring, Texas: Villages of Bridgestone
Compliments of Weather Underground - 3 mb

Script developed by  Jim McMurry - jmcmurry@mwt.net Adapted for the template by  Wim van der Kuil - Leuven-Template.eu

You find our weather info also at:

UK Metoffice

WeatherCloud

Weather Underground

Mid-South Weather Network

AWEKAS

Citizen Weather Observer Program (CWOP)

HAMweather, WeatherForYou, PWS Weather

Equipment we use:

Weather-station
Davis Vantage Vue

Weather-program
Meteohub

Weather-server
Debian 7.9 x86 (Guest)

Provider
DreamHost

Davis Vantage Vue

Meteohub

Debian 7.9 x86 (Guest)

DreamHost